EW5390 Weather Reports


Display with metric or nautical units.
time (UTC)temp
F
wind
direction
speed
MPH
gust
MPH
rain 1hr
in
rain 24hr
in
rain mn
in
humidity
%
barometer
mb
20260831085055 73 0 0.0 0.0 0.00 0.00 0.00 96 1018.4
20260831084636 73 0 0.0 0.0 0.00 0.00 0.00 96 1018.5
20260831084053 73 0 0.0 0.0 0.00 0.00 0.00 96 1018.4
20260831083553 73 0 0.0 1.0 0.00 0.00 0.00 96 1018.4
20260831083108 73 0 0.0 1.0 0.00 0.00 0.00 96 1018.5
20260831082553 73 0 0.0 0.0 0.00 0.00 0.00 96 1018.5
20260831082053 73 0 0.0 1.0 0.00 0.00 0.00 96 1018.4
20260831081604 73 0 0.0 1.0 0.00 0.00 0.00 96 1018.5
20260831081055 73 129 0.0 1.0 0.00 0.00 0.00 96 1018.6
20260831080554 73 0 0.0 1.0 0.00 0.00 0.00 96 1018.6
20260831080120 73 127 1.0 1.0 0.00 0.00 0.00 96 1018.6
20260831075555 73 139 0.0 0.0 0.00 0.00 0.00 96 1018.6
20260831075052 73 0 0.0 0.0 0.00 0.00 0.00 96 1018.5
20260831074607 73 0 0.0 0.0 0.00 0.00 0.00 96 1018.6
20260831074053 73 0 0.0 0.0 0.00 0.00 0.00 96 1018.6
20260831073555 73 0 0.0 0.0 0.00 0.00 0.00 96 1018.6
20260831073105 73 0 0.0 0.0 0.00 0.00 0.00 96 1018.6
20260831072553 73 0 0.0 0.0 0.00 0.00 0.00 96 1018.6
20260831072053 73 0 0.0 0.0 0.00 0.00 0.00 96 1018.5
20260831071611 73 0 0.0 0.0 0.00 0.00 0.00 96 1018.5
20260831071053 73 0 0.0 0.0 0.00 0.00 0.00 96 1018.5
20260831070553 73 0 0.0 0.0 0.00 0.00 0.00 96 1018.4
20260831070104 73 0 0.0 0.0 0.00 0.00 0.00 96 1018.5
20260831065553 73 0 0.0 0.0 0.00 0.00 0.00 96 1018.5
20260831065053 73 0 0.0 0.0 0.00 0.00 0.00 96 1018.5
20260831064604 73 0 0.0 0.0 0.00 0.00 0.00 96 1018.5
20260831064053 73 0 0.0 0.0 0.00 0.00 0.00 96 1018.6
20260831063552 73 0 0.0 0.0 0.00 0.00 0.00 96 1018.7
20260831063112 73 0 0.0 0.0 0.00 0.00 0.00 96 1018.7
20260831062556 73 0 0.0 0.0 0.00 0.00 0.00 96 1018.7
20260831062053 73 0 0.0 0.0 0.00 0.00 0.00 95 1018.7
20260831061601 73 0 0.0 0.0 0.00 0.00 0.00 95 1018.7
20260831061054 73 0 0.0 0.0 0.00 0.00 0.00 95 1018.8
20260831060554 73 0 0.0 0.0 0.00 0.00 0.00 95 1018.8
20260831060105 73 0 0.0 0.0 0.00 0.00 0.00 95 1018.8
20260831055553 73 0 0.0 0.0 0.00 0.00 0.00 95 1018.7
20260831055053 73 0 0.0 0.0 0.00 0.00 0.00 95 1018.8
20260831054605 73 0 0.0 0.0 0.00 0.00 0.00 95 1018.8
20260831054053 73 0 0.0 0.0 0.00 0.00 0.00 95 1018.8
20260831053553 73 0 0.0 0.0 0.00 0.00 0.00 95 1018.7
20260831053122 73 0 0.0 0.0 0.00 0.00 0.00 95 1018.7
20260831052556 73 0 0.0 0.0 0.00 0.00 0.00 95 1018.7
20260831052057 73 0 0.0 0.0 0.00 0.00 0.00 95 1018.7
20260831051559 73 0 0.0 0.0 0.00 0.00 0.00 95 1018.8
20260831051053 73 0 0.0 0.0 0.00 0.00 0.00 94 1018.6
20260831050553 73 0 0.0 0.0 0.00 0.00 0.00 94 1018.6
20260831050120 73 0 0.0 0.0 0.00 0.00 0.00 94 1018.6
20260831045553 73 0 0.0 0.0 0.00 0.00 0.00 94 1018.6
20260831045054 73 0 0.0 0.0 0.00 0.00 0.00 94 1018.7
20260831044602 73 0 0.0 0.0 0.00 0.00 0.00 94 1018.7
20260831044053 74 0 0.0 0.0 0.00 0.00 0.00 94 1018.7
20260831043552 74 0 0.0 0.0 0.00 0.00 0.00 94 1018.8
20260831043102 74 0 0.0 0.0 0.00 0.00 0.00 94 1018.7
20260831042554 74 0 0.0 0.0 0.00 0.00 0.00 94 1018.8
20260831042057 74 0 0.0 0.0 0.00 0.00 0.00 93 1018.7
20260831041621 74 0 0.0 0.0 0.00 0.00 0.00 93 1018.8
20260831041053 74 0 0.0 0.0 0.00 0.00 0.00 93 1018.8
20260831040556 74 0 0.0 0.0 0.00 0.00 0.00 93 1018.8
20260831040112 74 0 0.0 0.0 0.00 0.00 0.00 93 1018.9
20260831035552 74 0 0.0 0.0 0.00 0.00 0.00 93 1018.9
20260831035052 74 0 0.0 0.0 0.00 0.00 0.00 93 1019.1
20260831034602 74 0 0.0 0.0 0.00 0.00 0.00 92 1019.1
20260831034055 74 0 0.0 0.0 0.00 0.00 0.00 92 1018.9
20260831033554 74 0 0.0 0.0 0.00 0.00 0.00 92 1018.9
20260831033114 74 0 0.0 0.0 0.00 0.00 0.00 92 1019.1
20260831032554 74 0 0.0 0.0 0.00 0.00 0.00 92 1019.1
20260831032057 74 0 0.0 0.0 0.00 0.00 0.00 91 1019.2
20260831031606 74 0 0.0 0.0 0.00 0.00 0.00 91 1019.1
20260831031054 75 0 0.0 0.0 0.00 0.00 0.00 91 1019.1
20260831030552 75 0 0.0 1.0 0.00 0.00 0.00 91 1019.2
20260831030107 75 0 0.0 1.0 0.00 0.00 0.00 91 1019.1
20260831025555 75 0 0.0 0.0 0.00 0.00 0.00 90 1019.1
20260831025056 75 152 0.0 0.0 0.00 0.00 0.00 90 1019.1
20260831024604 75 152 0.0 0.0 0.00 0.00 0.00 90 1019.2
20260831024052 75 0 0.0 0.0 0.00 0.00 0.00 89 1019.1
20260831023552 75 0 0.0 1.0 0.00 0.00 0.00 89 1019.2
20260831023106 75 0 0.0 1.0 0.00 0.00 0.00 89 1019.2
20260831022552 75 0 0.0 0.0 0.00 0.00 0.00 88 1019.4
20260831022054 76 0 0.0 0.0 0.00 0.00 0.00 88 1019.5
20260831021605 76 0 0.0 0.0 0.00 0.00 0.00 87 1019.5
20260831021052 76 0 0.0 0.0 0.00 0.00 0.00 87 1019.5
20260831020553 76 0 0.0 1.0 0.00 0.00 0.00 87 1019.5
20260831015552 76 0 0.0 1.0 0.00 0.00 0.00 86 1019.4
20260831015052 76 0 0.0 0.0 0.00 0.00 0.00 86 1019.4
20260831014617 77 0 0.0 1.0 0.00 0.00 0.00 87 1019.4
20260831014052 77 0 0.0 1.0 0.00 0.00 0.00 87 1019.3
20260831013552 77 0 0.0 1.0 0.00 0.00 0.00 87 1019.3
20260831013106 77 152 0.0 0.0 0.00 0.00 0.00 87 1019.4
20260831012553 77 0 0.0 0.0 0.00 0.00 0.00 87 1019.4
20260831012054 77 0 0.0 0.0 0.00 0.00 0.00 88 1019.4
20260831011616 77 0 0.0 0.0 0.00 0.00 0.00 88 1019.3
20260831011052 77 0 0.0 0.0 0.00 0.00 0.00 88 1019.3
20260831010552 77 0 0.0 0.0 0.00 0.00 0.00 88 1019.3
20260831010113 77 0 0.0 0.0 0.00 0.00 0.00 88 1019.4
20260831005554 77 0 0.0 0.0 0.00 0.00 0.00 88 1019.4
20260831005052 77 0 0.0 0.0 0.00 0.00 0.00 88 1019.3
20260831004615 77 0 0.0 0.0 0.00 0.00 0.00 88 1019.3
20260831004056 77 0 0.0 0.0 0.00 0.00 0.00 88 1019.2
20260831003555 77 0 0.0 0.0 0.00 0.00 0.00 88 1019.2
20260831003111 77 0 0.0 0.0 0.00 0.00 0.00 88 1019.1
20260831002553 77 0 0.0 0.0 0.00 0.00 0.00 88 1019.1
20260831002054 77 0 0.0 0.0 0.00 0.00 0.00 88 1019.0
20260831001618 77 0 0.0 0.0 0.00 0.00 0.00 88 1018.9
20260831001054 77 0 0.0 0.0 0.00 0.00 0.00 87 1018.9
20260831000555 78 0 0.0 0.0 0.00 0.00 0.00 87 1018.9
20260831000106 78 0 0.0 0.0 0.00 0.00 0.00 87 1019.0
20260830235553 78 0 0.0 0.0 0.00 0.00 0.00 86 1018.9
20260830235053 78 0 0.0 0.0 0.00 0.00 0.00 86 1018.9
20260830234607 78 0 0.0 0.0 0.00 0.00 0.00 86 1018.8
20260830234053 78 0 0.0 0.0 0.00 0.00 0.00 85 1018.8
20260830233554 79 0 0.0 0.0 0.00 0.00 0.00 85 1018.8
20260830233057 79 0 0.0 0.0 0.00 0.00 0.00 85 1018.8
20260830232552 79 0 0.0 0.0 0.00 0.00 0.00 84 1018.9
20260830232051 79 0 0.0 0.0 0.00 0.00 0.00 84 1018.9
20260830231611 79 152 0.0 0.0 0.00 0.00 0.00 84 1018.9
20260830231054 79 0 0.0 0.0 0.00 0.00 0.00 84 1018.9
20260830230553 79 0 0.0 0.0 0.00 0.00 0.00 83 1019.1
20260830230108 80 0 0.0 0.0 0.00 0.00 0.00 83 1019.0
20260830225555 80 0 0.0 0.0 0.00 0.00 0.00 83 1019.1
20260830225052 80 0 0.0 0.0 0.00 0.00 0.00 82 1019.1
20260830224608 80 0 0.0 0.0 0.00 0.00 0.00 81 1019.0
20260830224052 80 0 0.0 0.0 0.00 0.00 0.00 81 1018.9
20260830223552 80 152 0.0 0.0 0.00 0.00 0.00 81 1018.9
20260830223056 81 0 0.0 0.0 0.00 0.00 0.00 80 1019.1
20260830222555 81 0 0.0 0.0 0.00 0.00 0.00 79 1019.1
20260830222052 81 0 0.0 0.0 0.00 0.00 0.00 79 1019.0
20260830221606 81 0 0.0 0.0 0.00 0.00 0.00 79 1018.9
20260830221055 81 0 0.0 0.0 0.00 0.00 0.00 78 1018.9
20260830220555 82 0 0.0 1.0 0.00 0.00 0.00 78 1018.8
20260830220104 82 0 0.0 1.0 0.00 0.00 0.00 78 1018.7
20260830215552 82 0 0.0 1.0 0.00 0.00 0.00 78 1018.7
20260830215055 82 149 0.0 1.0 0.00 0.00 0.00 78 1018.6
20260830214601 82 0 0.0 1.0 0.00 0.00 0.00 77 1018.6
20260830214056 82 129 0.0 1.0 0.00 0.00 0.00 78 1018.6
20260830213552 82 0 0.0 1.0 0.00 0.00 0.00 78 1018.6
20260830213102 82 0 0.0 1.0 0.00 0.00 0.00 77 1018.6
20260830212552 82 0 0.0 1.0 0.00 0.00 0.00 78 1018.5
20260830212053 82 0 0.0 1.0 0.00 0.00 0.00 77 1018.5
20260830211601 83 60 0.0 1.0 0.00 0.00 0.00 77 1018.6
20260830211052 83 0 0.0 1.0 0.00 0.00 0.00 76 1018.5
20260830210554 83 0 0.0 1.0 0.00 0.00 0.00 76 1018.6
20260830210139 83 0 0.0 1.0 0.00 0.00 0.00 76 1018.6
20260830205551 83 0 0.0 1.0 0.00 0.00 0.00 75 1018.6
20260830205051 84 0 0.0 1.0 0.00 0.00 0.00 74 1018.7
20260830204611 84 0 0.0 1.0 0.00 0.00 0.00 73 1018.7
20260830204054 84 0 0.0 2.0 0.00 0.00 0.00 70 1018.6
20260830203552 84 11 0.0 3.0 0.00 0.00 0.00 71 1018.5
20260830203104 84 11 0.0 3.0 0.00 0.00 0.00 69 1018.6
20260830202553 84 322 1.0 3.0 0.00 0.00 0.00 69 1018.7
20260830202054 84 318 0.0 3.0 0.00 0.00 0.00 69 1018.8
20260830201603 84 318 2.0 3.0 0.00 0.00 0.00 67 1018.8
20260830201053 84 42 0.0 2.0 0.00 0.00 0.00 69 1019.0
20260830200553 84 332 0.0 3.0 0.00 0.00 0.00 70 1019.1
20260830200114 84 316 1.0 4.0 0.00 0.00 0.00 70 1019.1
20260830195554 84 302 1.0 4.0 0.00 0.00 0.00 69 1019.1
20260830195053 84 305 1.0 4.0 0.00 0.00 0.00 68 1019.2
20260830194648 84 317 0.0 5.0 0.00 0.00 0.00 68 1019.2
20260830194055 84 330 1.0 5.0 0.00 0.00 0.00 67 1019.4
20260830193557 84 322 2.0 5.0 0.00 0.00 0.00 69 1019.4
20260830193105 84 315 1.0 4.0 0.00 0.00 0.00 69 1019.3
20260830192554 84 301 0.0 3.0 0.00 0.00 0.00 70 1019.4
20260830192053 84 12 0.0 4.0 0.00 0.00 0.00 71 1019.5
20260830191608 84 317 1.0 5.0 0.00 0.00 0.00 70 1019.5
20260830191053 84 321 2.0 5.0 0.00 0.00 0.00 71 1019.5
20260830190553 84 292 1.0 3.0 0.00 0.00 0.00 74 1019.7
20260830190110 84 312 1.0 4.0 0.00 0.00 0.00 73 1019.7
20260830185554 84 319 2.0 4.0 0.00 0.00 0.00 72 1019.5
20260830185053 84 356 0.0 4.0 0.00 0.00 0.00 73 1019.6
20260830184614 84 307 0.0 3.0 0.00 0.00 0.00 74 1019.7
20260830184052 84 323 1.0 3.0 0.00 0.00 0.00 73 1019.8
20260830183556 84 330 0.0 3.0 0.00 0.00 0.00 74 1019.9
20260830183117 83 330 0.0 2.0 0.00 0.00 0.00 74 1019.9
20260830182556 83 0 0.0 2.0 0.00 0.00 0.00 75 1020.1
20260830182054 83 0 1.0 3.0 0.00 0.00 0.00 74 1020.2
20260830181559 83 0 0.0 3.0 0.00 0.00 0.00 77 1020.2
20260830181057 83 319 1.0 3.0 0.00 0.00 0.00 76 1020.3
20260830180553 83 276 0.0 3.0 0.00 0.00 0.00 76 1020.3
20260830180106 83 0 1.0 3.0 0.00 0.00 0.00 76 1020.5
20260830175554 83 322 0.0 3.0 0.00 0.00 0.00 76 1020.5
20260830175054 83 315 1.0 3.0 0.00 0.00 0.00 77 1020.7
20260830174605 83 319 1.0 3.0 0.00 0.00 0.00 78 1020.6
20260830174055 83 1 0.0 3.0 0.00 0.00 0.00 79 1020.7
20260830173553 82 354 1.0 2.0 0.00 0.00 0.00 78 1020.7
20260830173115 82 318 0.0 3.0 0.00 0.00 0.00 78 1020.8
20260830172554 82 0 2.0 3.0 0.00 0.00 0.00 78 1020.9
20260830172055 82 322 1.0 3.0 0.00 0.00 0.00 78 1021.0
20260830171602 82 322 0.0 2.0 0.00 0.00 0.00 79 1021.1
20260830171053 82 22 1.0 2.0 0.00 0.00 0.00 77 1021.2
20260830170554 82 212 0.0 4.0 0.00 0.00 0.00 78 1021.3
20260830170106 82 0 1.0 4.0 0.00 0.00 0.00 77 1021.5
20260830165554 81 319 1.0 3.0 0.00 0.00 0.00 78 1021.4
20260830165054 81 0 1.0 2.0 0.00 0.00 0.00 77 1021.4
20260830164600 81 138 0.0 3.0 0.00 0.00 0.00 78 1021.5
20260830164054 81 0 0.0 3.0 0.00 0.00 0.00 78 1021.5
20260830163554 81 315 1.0 3.0 0.00 0.00 0.00 78 1021.6
20260830163104 81 0 0.0 3.0 0.00 0.00 0.00 79 1021.7
20260830162554 81 0 0.0 3.0 0.00 0.00 0.00 79 1021.7
20260830162054 81 186 1.0 3.0 0.00 0.00 0.00 79 1021.8
20260830161627 81 326 1.0 3.0 0.00 0.00 0.00 77 1021.9
20260830161054 82 334 1.0 3.0 0.00 0.00 0.00 77 1022.0
20260830160554 81 358 0.0 3.0 0.00 0.00 0.00 77 1021.9
20260830160104 81 314 0.0 3.0 0.00 0.00 0.00 77 1021.9
20260830155555 81 240 0.0 2.0 0.00 0.00 0.00 78 1021.9
20260830155051 81 204 1.0 4.0 0.00 0.00 0.00 76 1021.8
20260830154603 81 321 1.0 4.0 0.00 0.00 0.00 75 1021.8
20260830154055 82 349 0.0 2.0 0.00 0.00 0.00 75 1021.8
20260830153552 82 0 1.0 2.0 0.00 0.00 0.00 77 1021.9
20260830153106 82 149 0.0 2.0 0.00 0.00 0.00 76 1021.9
20260830152555 81 198 0.0 2.0 0.00 0.00 0.00 77 1022.0
20260830152055 81 236 0.0 4.0 0.00 0.00 0.00 77 1022.0
20260830151601 81 282 0.0 4.0 0.00 0.00 0.00 79 1021.9
20260830151056 81 160 0.0 2.0 0.00 0.00 0.00 79 1022.0
20260830150555 81 153 0.0 2.0 0.00 0.00 0.00 78 1022.0
20260830150116 81 331 0.0 2.0 0.00 0.00 0.00 79 1022.1
20260830145552 81 172 0.0 2.0 0.00 0.00 0.00 79 1022.1
20260830145054 81 32 0.0 2.0 0.00 0.00 0.00 80 1022.1
20260830144602 80 5 0.0 2.0 0.00 0.00 0.00 81 1022.2
20260830144054 79 354 0.0 3.0 0.00 0.00 0.00 81 1022.2
20260830143555 79 0 1.0 3.0 0.00 0.00 0.00 82 1022.3
20260830143105 79 146 1.0 2.0 0.00 0.00 0.00 81 1022.3
20260830142558 79 0 0.0 2.0 0.00 0.00 0.00 83 1022.4
20260830142054 78 161 0.0 2.0 0.00 0.00 0.00 83 1022.4
20260830141601 78 81 0.0 2.0 0.00 0.00 0.00 83 1022.5
20260830141054 78 13 0.0 1.0 0.00 0.00 0.00 84 1022.4
20260830140551 77 0 0.0 2.0 0.00 0.00 0.00 85 1022.5
20260830135554 76 80 0.0 2.0 0.00 0.00 0.00 84 1022.6
20260830135055 76 102 0.0 1.0 0.00 0.00 0.00 88 1022.7
20260830134558 75 0 0.0 1.0 0.00 0.00 0.00 87 1022.8
20260830134055 75 112 0.0 1.0 0.00 0.00 0.00 88 1022.8
20260830133556 74 157 0.0 1.0 0.00 0.00 0.00 89 1022.9
20260830133103 74 0 0.0 1.0 0.00 0.00 0.00 89 1023.0
20260830132551 73 352 0.0 2.0 0.00 0.00 0.00 92 1022.9
20260830132054 73 354 0.0 2.0 0.00 0.00 0.00 93 1022.9
20260830131621 72 157 0.0 2.0 0.00 0.00 0.00 94 1022.9
20260830131055 71 0 0.0 2.0 0.00 0.00 0.00 95 1022.9
20260830130556 71 0 0.0 1.0 0.00 0.00 0.00 95 1023.1
20260830130101 70 0 0.0 1.0 0.00 0.00 0.00 96 1023.2
20260830125551 70 0 0.0 0.0 0.00 0.00 0.00 96 1023.2
20260830125054 69 0 0.0 1.0 0.00 0.00 0.00 96 1023.3
20260830124603 69 141 0.0 1.0 0.00 0.00 0.00 96 1023.2
20260830124054 69 141 0.0 1.0 0.00 0.00 0.00 96 1023.3
20260830123554 69 0 0.0 0.0 0.00 0.00 0.00 96 1023.4
20260830123121 68 0 0.0 0.0 0.00 0.00 0.00 96 1023.4
20260830122555 68 0 0.0 0.0 0.00 0.00 0.00 96 1023.4
20260830122055 68 0 0.0 0.0 0.00 0.00 0.00 96 1023.3
20260830121559 67 0 0.0 0.0 0.00 0.00 0.00 96 1023.3
20260830121054 67 0 0.0 0.0 0.00 0.00 0.00 96 1023.3
20260830120554 67 0 0.0 0.0 0.00 0.00 0.00 96 1023.4
20260830115554 67 0 0.0 0.0 0.00 0.00 0.00 96 1023.3
20260830115057 66 0 0.0 0.0 0.00 0.00 0.00 96 1023.4
20260830114611 66 0 0.0 0.0 0.00 0.00 0.00 96 1023.3
20260830114055 66 0 0.0 0.0 0.00 0.00 0.00 96 1023.3
20260830113554 66 0 0.0 0.0 0.00 0.00 0.00 96 1023.3
20260830113106 66 0 0.0 0.0 0.00 0.00 0.00 96 1023.4
20260830112553 65 0 0.0 0.0 0.00 0.00 0.00 96 1023.3
20260830112051 65 0 0.0 0.0 0.00 0.00 0.00 96 1023.3
20260830111601 65 0 0.0 0.0 0.00 0.00 0.00 96 1023.3
20260830111054 65 0 0.0 0.0 0.00 0.00 0.00 96 1023.2
20260830110555 65 0 0.0 0.0 0.00 0.00 0.00 96 1023.2
20260830110100 65 0 0.0 0.0 0.00 0.00 0.00 96 1023.1
20260830105556 65 0 0.0 0.0 0.00 0.00 0.00 96 1023.1
20260830105054 65 0 0.0 0.0 0.00 0.00 0.00 96 1023.1
20260830104618 65 0 0.0 0.0 0.00 0.00 0.00 96 1023.1
20260830104055 65 0 0.0 0.0 0.00 0.00 0.00 96 1023.1
20260830103555 65 0 0.0 0.0 0.00 0.00 0.00 96 1023.1
20260830103102 65 0 0.0 0.0 0.00 0.00 0.00 96 1023.1
20260830102559 64 0 0.0 0.0 0.00 0.00 0.00 96 1023.1
20260830102053 64 0 0.0 0.0 0.00 0.00 0.00 96 1023.2
20260830101556 64 0 0.0 0.0 0.00 0.00 0.00 96 1023.2
20260830101054 64 0 0.0 0.0 0.00 0.00 0.00 96 1023.2
20260830100554 64 0 0.0 0.0 0.00 0.00 0.00 96 1023.1
20260830100105 64 0 0.0 0.0 0.00 0.00 0.00 96 1023.1
20260830095558 64 0 0.0 0.0 0.00 0.00 0.00 96 1023.1
20260830095055 64 0 0.0 0.0 0.00 0.00 0.00 96 1023.0
20260830094605 64 0 0.0 0.0 0.00 0.00 0.00 96 1022.9
20260830094055 64 0 0.0 0.0 0.00 0.00 0.00 96 1023.0
20260830093554 64 0 0.0 0.0 0.00 0.00 0.00 96 1023.1
20260830093058 64 0 0.0 0.0 0.00 0.00 0.00 96 1023.1
20260830092554 64 0 0.0 0.0 0.00 0.00 0.00 96 1023.1
20260830092053 64 0 0.0 0.0 0.00 0.00 0.00 95 1023.1
20260830091611 64 0 0.0 0.0 0.00 0.00 0.00 95 1023.1
20260830091051 64 0 0.0 0.0 0.00 0.00 0.00 95 1023.1
20260830090551 64 0 0.0 0.0 0.00 0.00 0.00 95 1023.1
20260830090106 64 0 0.0 0.0 0.00 0.00 0.00 95 1023.1
20260830085558 64 0 0.0 0.0 0.00 0.00 0.00 95 1023.1